Location: Byhalia Creek
(34.8270°N, 89.8040°W)
Time: 16:05:01
(UTC+00:00)

Cosmos 158 Rocket - Pass Details

Date: 22 April 2026
Orbit: 694 x 786 km, 74.0° (Epoch: 8 May)

Event Time Altitude Azimuth Distance (km) Brightness Sun altitude
Exits shadow 10:49:18 - 211° (SSW) 3,197 6.7 -6.6°
Rises 10:49:19 0° 211° (SSW) 3,190 6.7 -6.6°
Reaches altitude 10° 10:51:44 10° 217° (SW) 2,283 6.0 -6.1°
Maximum altitude 10:56:44 48° 291° (WNW) 1,008 4.4 -5.1°
Drops below altitude 10° 11:01:52 10° 5° (N) 2,339 6.9 -4.1°
Sets 11:04:23 0° 11° (NNE) 3,277 7.7 -3.6°
